When you browse on this site, cookies collect data to enhance your experience and personalize the content and advertising you see.
Visit our Privacy Policy to learn more. By continuing to use the site, you agree to this use of cookies and data.
  • In Hungary
  • List of Countries
  • For 7 days
  • Water Temperature
  • Weather Map
  • News
  • Weather Widgets
  • user-avatar
    Login

    Hourly Weather Sauran

    Today, 16 December, Monday

    Time Temperature Precipitation Wind Pressure Humidity
    00:00 -4°C° 0 mm 2 mps 721 mmHg 58%
    01:00 -4°C° 0 mm 2 mps 721 mmHg 55%
    02:00 -4°C° 0 mm 2 mps 721 mmHg 52%
    03:00 -4°C° 0 mm 2 mps 721 mmHg 51%
    04:00 -4°C° 0 mm 2 mps 721 mmHg 49%
    05:00 -5°C° 0 mm 2 mps 720 mmHg 52%
    06:00 -5°C° 0 mm 2 mps 720 mmHg 51%
    07:00 -5°C° 0 mm 2 mps 721 mmHg 51%
    08:00 -5°C° 0 mm 2 mps 721 mmHg 50%
    09:00 -1°C° 0 mm 1 mps 721 mmHg 53%
    10:00 0°C° 0 mm 1 mps 721 mmHg 56%
    11:00 +2°C° 0 mm 1 mps 721 mmHg 59%
    12:00 +3°C° 0 mm 1 mps 721 mmHg 62%
    13:00 +3°C° 0 mm 1 mps 720 mmHg 64%
    14:00 +4°C° 0 mm 1 mps 720 mmHg 66%
    15:00 +2°C° 0 mm 1 mps 720 mmHg 63%
    16:00 +1°C° 0 mm 1 mps 720 mmHg 61%
    17:00 0°C° 0 mm 1 mps 720 mmHg 58%
    18:00 -1°C° 0 mm 1 mps 720 mmHg 56%
    19:00 -3°C° 0 mm 2 mps 720 mmHg 54%
    20:00 -3°C° 0 mm 2 mps 720 mmHg 51%
    21:00 -3°C° 0 mm 2 mps 719 mmHg 49%
    22:00 -3°C° 0 mm 2 mps 719 mmHg 47%
    23:00 -3°C° 0 mm 2 mps 719 mmHg 45%

    Tomorrow, 17 December, Tuesday

    Time Temperature Precipitation Wind Pressure Humidity
    00:00 -3°C° 0 mm 2 mps 719 mmHg 44%
    01:00 -3°C° 0 mm 2 mps 719 mmHg 43%
    02:00 -3°C° 0 mm 2 mps 719 mmHg 41%
    03:00 -2°C° 0 mm 2 mps 719 mmHg 41%
    04:00 -2°C° 0 mm 2 mps 719 mmHg 40%
    05:00 -2°C° 0 mm 2 mps 719 mmHg 40%
    06:00 -2°C° 0 mm 2 mps 719 mmHg 40%
    07:00 -2°C° 0 mm 2 mps 719 mmHg 40%
    08:00 -2°C° 0 mm 2 mps 720 mmHg 40%
    09:00 +2°C° 0 mm 1 mps 720 mmHg 44%
    10:00 +4°C° 0 mm 1 mps 720 mmHg 49%
    11:00 +6°C° 0 mm 1 mps 720 mmHg 54%
    12:00 +6°C° 0 mm 1 mps 720 mmHg 54%
    13:00 +6°C° 0 mm 0 mps 719 mmHg 55%
    14:00 +6°C° 0 mm 0 mps 719 mmHg 56%
    15:00 +6°C° 0 mm 1 mps 719 mmHg 53%
    16:00 +5°C° 0 mm 1 mps 718 mmHg 51%
    17:00 +4°C° 0 mm 1 mps 718 mmHg 48%
    18:00 +3°C° 0 mm 2 mps 718 mmHg 49%
    19:00 +3°C° 0 mm 2 mps 718 mmHg 50%
    20:00 +2°C° 0 mm 2 mps 718 mmHg 50%
    21:00 +3°C° 0 mm 2 mps 718 mmHg 51%
    22:00 +3°C° 0 mm 2 mps 717 mmHg 53%
    23:00 +3°C° 0 mm 2 mps 717 mmHg 54%

    Day after tomorrow, 18 December, Wednesday

    Time Temperature Precipitation Wind Pressure Humidity
    00:00 +3°C° 0 mm 2 mps 717 mmHg 54%
    01:00 +3°C° 0 mm 2 mps 717 mmHg 55%
    02:00 +4°C° 0 mm 1 mps 717 mmHg 56%
    03:00 +4°C° 0 mm 1 mps 716 mmHg 57%
    04:00 +4°C° 0 mm 1 mps 716 mmHg 58%
    05:00 +3°C° 0 mm 1 mps 716 mmHg 60%
    06:00 +3°C° 0 mm 1 mps 716 mmHg 62%
    07:00 +2°C° 0 mm 2 mps 716 mmHg 64%
    08:00 +3°C° 0 mm 2 mps 717 mmHg 67%
    09:00 +3°C° 0 mm 3 mps 717 mmHg 67%
    10:00 +4°C° 0 mm 3 mps 717 mmHg 67%
    11:00 +5°C° 0 mm 4 mps 718 mmHg 68%
    12:00 +5°C° 0.1 mm 4 mps 718 mmHg 67%
    13:00 +4°C° 0.1 mm 4 mps 718 mmHg 67%
    14:00 +3°C° 0.1 mm 5 mps 718 mmHg 66%
    15:00 +3°C° 0.3 mm 4 mps 718 mmHg 72%
    16:00 +3°C° 0.3 mm 4 mps 718 mmHg 79%
    17:00 +1°C° 0.3 mm 4 mps 719 mmHg 85%
    18:00 +1°C° 0 mm 4 mps 719 mmHg 84%
    19:00 +1°C° 0 mm 4 mps 719 mmHg 83%
    20:00 +2°C° 0 mm 3 mps 720 mmHg 83%
    21:00 +1°C° 0 mm 4 mps 720 mmHg 83%
    22:00 +1°C° 0 mm 4 mps 720 mmHg 83%
    23:00 +1°C° 0 mm 4 mps 719 mmHg 83%

    19 December, Thursday

    Time Temperature Precipitation Wind Pressure Humidity
    00:00 +1°C° 0 mm 4 mps 719 mmHg 83%
    01:00 +1°C° 0 mm 4 mps 719 mmHg 84%
    02:00 +1°C° 0 mm 4 mps 719 mmHg 85%
    03:00 +1°C° 0 mm 4 mps 719 mmHg 86%
    04:00 +2°C° 0 mm 5 mps 719 mmHg 86%
    05:00 +2°C° 0 mm 5 mps 718 mmHg 87%
    06:00 +2°C° 0 mm 5 mps 718 mmHg 86%
    07:00 +2°C° 0 mm 6 mps 718 mmHg 85%
    08:00 +2°C° 0 mm 6 mps 719 mmHg 84%
    09:00 +2°C° 0 mm 7 mps 719 mmHg 80%
    10:00 +2°C° 0 mm 7 mps 719 mmHg 77%
    11:00 +2°C° 0 mm 8 mps 719 mmHg 73%
    12:00 +2°C° 0 mm 8 mps 719 mmHg 72%
    13:00 +2°C° 0 mm 8 mps 718 mmHg 70%
    14:00 +2°C° 0 mm 8 mps 718 mmHg 69%
    15:00 +3°C° 0 mm 7 mps 718 mmHg 70%
    16:00 +3°C° 0 mm 7 mps 718 mmHg 72%
    17:00 +3°C° 0 mm 6 mps 718 mmHg 73%
    18:00 +2°C° 0.1 mm 6 mps 718 mmHg 75%
    19:00 +2°C° 0.1 mm 7 mps 718 mmHg 78%
    20:00 0°C° 0.1 mm 7 mps 719 mmHg 80%
    21:00 0°C° 0.2 mm 7 mps 719 mmHg 82%
    22:00 0°C° 0.2 mm 7 mps 719 mmHg 84%
    23:00 -1°C° 0.2 mm 7 mps 718 mmHg 86%

    20 December, Friday

    Time Temperature Precipitation Wind Pressure Humidity
    00:00 +1°C° 0.1 mm 6 mps 718 mmHg 86%
    01:00 +1°C° 0.1 mm 6 mps 718 mmHg 86%
    02:00 +1°C° 0.1 mm 6 mps 718 mmHg 86%
    03:00 +1°C° 0 mm 5 mps 718 mmHg 83%
    04:00 +1°C° 0 mm 4 mps 718 mmHg 81%
    05:00 +3°C° 0 mm 2 mps 717 mmHg 78%
    06:00 +2°C° 0 mm 3 mps 717 mmHg 75%
    07:00 +2°C° 0 mm 3 mps 717 mmHg 72%
    08:00 +2°C° 0 mm 3 mps 717 mmHg 70%
    09:00 +3°C° 0 mm 5 mps 717 mmHg 64%
    10:00 +4°C° 0 mm 6 mps 716 mmHg 59%
    11:00 +6°C° 0 mm 8 mps 716 mmHg 54%
    12:00 +6°C° 0 mm 8 mps 716 mmHg 52%
    13:00 +7°C° 0 mm 9 mps 715 mmHg 51%
    14:00 +7°C° 0 mm 9 mps 715 mmHg 49%
    15:00 +6°C° 0 mm 9 mps 714 mmHg 51%
    16:00 +6°C° 0 mm 8 mps 714 mmHg 54%
    17:00 +5°C° 0 mm 7 mps 713 mmHg 56%
    18:00 +5°C° 0 mm 7 mps 713 mmHg 55%
    19:00 +5°C° 0 mm 8 mps 713 mmHg 54%
    20:00 +5°C° 0 mm 8 mps 713 mmHg 54%
    21:00 +5°C° 0 mm 8 mps 712 mmHg 52%
    22:00 +5°C° 0 mm 9 mps 712 mmHg 50%
    23:00 +5°C° 0 mm 10 mps 712 mmHg 48%

    21 December, Saturday

    Time Temperature Precipitation Wind Pressure Humidity
    00:00 +5°C° 0 mm 9 mps 711 mmHg 48%
    01:00 +5°C° 0 mm 9 mps 711 mmHg 49%
    02:00 +6°C° 0 mm 9 mps 710 mmHg 49%
    03:00 +5°C° 0 mm 10 mps 710 mmHg 50%
    04:00 +5°C° 0 mm 10 mps 710 mmHg 51%
    05:00 +5°C° 0 mm 10 mps 709 mmHg 52%
    06:00 +5°C° 0 mm 10 mps 710 mmHg 52%
    07:00 +5°C° 0 mm 10 mps 710 mmHg 52%
    08:00 +5°C° 0 mm 10 mps 710 mmHg 52%
    09:00 +4°C° 0.1 mm 11 mps 710 mmHg 52%
    10:00 +6°C° 0.1 mm 11 mps 711 mmHg 52%
    11:00 +6°C° 0.1 mm 11 mps 711 mmHg 52%
    12:00 +4°C° 0.4 mm 11 mps 711 mmHg 59%
    13:00 +3°C° 0.4 mm 11 mps 710 mmHg 66%
    14:00 +3°C° 0.4 mm 11 mps 710 mmHg 73%
    15:00 +2°C° 0.5 mm 10 mps 711 mmHg 73%
    16:00 +2°C° 0.5 mm 8 mps 711 mmHg 73%
    17:00 +2°C° 0.5 mm 7 mps 711 mmHg 73%
    18:00 +1°C° 0.2 mm 6 mps 712 mmHg 68%
    19:00 +1°C° 0.2 mm 5 mps 712 mmHg 63%
    20:00 0°C° 0.2 mm 4 mps 713 mmHg 57%
    21:00 0°C° 0 mm 4 mps 713 mmHg 57%
    22:00 -1°C° 0 mm 4 mps 714 mmHg 57%
    23:00 -1°C° 0 mm 4 mps 714 mmHg 57%
    Show more